Location: Mahannah Oil Field
(37.4664°N, 96.6003°W)
Time: 09:04:51
(UTC+00:00)

Courier 1B - Pass Details

Date: 27 January 2021
Orbit: 962 x 1209 km, 28.3° (Epoch: 02 March)

Event Time Altitude Azimuth Distance (km) Brightness Sun altitude
Rises 09:02:22 0° 263° (W) 3,666 - -53.4°
Reaches altitude 10° 09:05:35 10° 249° (WSW) 2,698 - -52.8°
Maximum altitude 09:10:29 23° 199° (SSW) 1,923 - -51.9°
Drops below altitude 10° 09:15:21 10° 150° (SSE) 2,689 - -51.0°
Sets 09:18:34 0° 136° (SE) 3,650 - -50.3°
